Vertical_Velocity
-1 -0 -0 -1 -1 -1 -0 -0 -0 0 0 0 0 0 -0 -0 -0 -0 -0 -0 0 0 0 -0 -0 -1 -1 -1 -1 -1 -1 -1 -1 -0 -0 -0 -1 -1 -1 -1 -1 -0 2 1 1 -0 -1 -1 -1 -1 -1 -1 -1 -1 -1 -1 -1 -1 -1 -1 -0 -0 -0 -1 -1 -0 -0 -0 -0 -0 -0 0 0 -0 -0 -0 -0 -0 -0 -0 -0 -0 -0 -0 -0 -0 -0 -0 -0 -0 0 -0 -1 -1 -1 -1 -0 -0 1 1 1 1 0
-1 -0 -0 -1 -1 -1 -0 -0 0 0 0 0 0 -0 -0 -0 -0 -0 -0 -0 -0 -0 -0 -0 -1 -1 -1 -1 -1 -1 -1 -1 -1 -1 -1 -1 -1 -1 -1 -1 -0 1 2 1 1 -0 -0 -1 -1 -1 -0 -1 -1 -1 -1 -1 -1 -1 -1 -0 -0 -0 -0 -1 -0 -0 -0 -0 -0 -0 0 0 -0 -0 0 0 0 -0 -0 -0 0 -0 -0 -0 -0 -0 -0 -0 -0 -0 -0 -0 -0 -0 -1 -1 -1 -1 -0 0 1 1 1
-1 -1 -0 -0 -0 -0 -0 -0 0 0 0 -0 -0 -0 -1 -1 -0 -0 -0 -0 -0 -0 -0 -1 -1 -1 -1 -1 -1 -1 -1 -1 -1 -1 -1 -1 -1 -1 -1 -0 0 1 2 1 0 -0 -0 -1 -1 -0 0 -0 -0 -1 -1 -1 -1 -1 -1 -0 -0 -1 -1 -1 -1 -0 -0 -1 -1 -0 -0 -0 -0 -0 0 0 0 -0 -0 -0 -0 -0 -0 -0 -0 -0 -0 -0 -0 -0 -0 -0 0 0 -0 -1 -1 -1 -1 -0 -0 0 0
-0 -0 -0 -0 -0 -0 -0 -0 -0 -0 -0 -0 -0 -1 -1 -1 -1 -1 -0 -1 -1 -1 -0 -1 -1 -1 -1 -1 -1 -1 -1 -1 -1 -1 -1 -1 -1 -1 -1 -0 1 1 1 0 0 -0 -0 -1 -1 -0 -0 -0 -0 -0 -0 -0 -0 -0 -1 -1 -1 -1 -1 -1 -1 -0 -0 -0 -0 -0 -0 -0 -0 -0 -0 -0 -0 -0 -0 -0 -0 -0 -0 -0 -0 -0 -1 -1 -1 -0 -0 -0 0 0 1 -0 -1 -1 -1 -1 -1 -0 0
-0 -0 -0 -0 -0 -0 -0 -0 -1 -1 -1 -1 -1 -1 -1 -1 -1 -1 -0 -1 -1 -1 -1 -1 -1 -1 -1 -1 -1 -1 -1 -1 -1 -1 -1 -1 -1 -1 -0 0 0 1 0 -0 -0 -1 -1 -1 -1 -1 -0 -0 -0 -0 -0 -0 -0 -1 -1 -1 -1 -1 -1 -1 -1 -1 -0 -0 -0 -0 -1 -0 -0 -0 -0 -0 -0 -0 -0 -0 -0 -0 -0 0 -0 -1 -1 -1 -1 -1 -0 -1 -0 -0 0 0 0 -0 -1 -1 -1 -0 0
-0 -0 -0 -0 -0 -0 -0 -1 -1 -1 -1 -1 -1 -1 -1 -1 -0 -0 -1 -1 -1 -1 -1 -0 -1 -1 -1 -1 -0 -0 -0 -0 -1 -1 -1 -1 -1 -1 -0 0 0 -0 -0 -1 -1 -1 -1 -1 -1 -1 -1 -1 -1 -1 -1 -1 -1 -1 -1 -1 -1 -1 -0 -0 -1 -1 -1 -0 -0 -0 -1 -0 -0 -0 -0 -0 -1 -0 -0 -0 -0 -0 -1 -0 -0 -0 -0 -0 -0 -0 -1 -1 -1 -0 -0 0 0 0 -1 -1 -1 -1 -0
-0 -0 -1 -1 -1 -1 -0 -1 -1 -1 -1 -1 -1 -1 -1 -1 -1 -0 -1 -1 -1 -1 -0 -0 -0 -1 -0 -0 -0 -0 -0 -1 -1 -1 -1 -1 -1 -1 -0 0 -0 -0 -1 -1 -1 -1 -1 -1 -1 -1 -1 -1 -1 -1 -1 -1 -1 -1 -1 -1 -1 -1 -1 -1 -1 -1 -1 -0 -0 -1 -1 -0 -1 -1 -1 -1 -1 -0 -0 -0 -0 -0 -1 -1 -0 -0 -0 -0 -0 0 -0 -0 -1 -1 -1 -0 -0 -0 -0 -1 -1 -0 -0
-0 -0 -1 -1 -1 -1 -0 -1 -1 -1 -1 -1 -1 -1 -1 -1 -1 -1 -1 -1 -1 -1 -0 -0 -0 -0 -0 -0 -0 -0 -0 -1 -1 -1 -1 -1 -1 -1 -0 -0 -0 -1 -1 -1 -1 -1 -1 -1 -1 -1 -1 -1 -1 -1 -1 -1 -1 -1 -1 -1 -1 -1 -1 -1 -1 -1 -1 -1 -1 -1 -1 -1 -1 -1 -1 -1 -1 -1 -0 -1 -1 -1 -1 -1 -1 -1 -1 -1 -1 -0 -0 -0 -1 -1 -2 -1 -0 -0 -1 -1 -1 -0 -0
-0 -0 -0 -1 -1 -1 -0 -1 -1 -1 -1 -1 -1 -1 -1 -1 -1 -0 -1 -0 -0 -0 -0 -0 -0 -0 -0 -0 -0 -1 -1 -1 -1 -1 -1 -1 -1 -1 -0 -0 -1 -1 -2 -2 -1 -1 -1 -1 -1 -1 -1 -1 -1 -1 -1 -1 -1 -1 -1 -1 -1 -1 -1 -1 -1 -1 -1 -1 -1 -1 -1 -1 -1 -1 -1 -1 -1 -1 -1 -1 -1 -1 -1 -1 -1 -1 -1 -1 -1 -1 -1 -1 -1 -2 -2 -1 -1 -1 -1 -1 -1 -1 -0
-0 -0 -0 -1 -1 -1 -0 -1 -1 -1 -1 -1 -1 -1 -1 -1 -0 -0 -1 -0 -0 -0 -0 -0 -1 -1 -1 -1 -1 -1 -1 -1 -1 -1 -1 -1 -1 -1 -1 -1 -1 -1 -2 -2 -2 -1 -1 -1 -1 -1 -1 -1 -1 -1 -1 -1 -1 -1 -1 -1 -1 -1 -1 -1 -1 -1 -1 -1 -1 -1 -1 -1 -1 -1 -1 -1 -1 -1 -1 -1 -1 -1 -1 -2 -2 -2 -2 -2 -2 -1 -1 -1 -1 -1 -2 -2 -1 -1 -1 -1 -1 -1 -1
-1 -1 -1 -1 -1 -0 -0 -0 -1 -1 -1 -1 -1 -1 -1 -1 -1 -0 -1 -1 -0 -0 -0 -1 -1 -1 -1 -1 -1 -1 -1 -1 -1 -1 -1 -1 -1 -1 -1 -1 -1 -2 -2 -2 -1 -1 -1 -1 -1 -1 -1 -1 -1 -1 -1 -1 -1 -1 -1 -1 -1 -1 -1 -1 -1 -1 -1 -1 -1 -1 -1 -1 -1 -1 -1 -1 -1 -1 -1 -1 -1 -2 -2 -2 -2 -2 -2 -2 -2 -2 -2 -1 -1 -1 -1 -2 -2 -2 -2 -1 -1 -1 -1
-0 -1 -0 -0 -0 -0 -0 -0 -1 -1 -1 -1 -1 -1 -1 -1 -1 -1 -1 -1 -1 -1 -1 -1 -1 -1 -1 -1 -1 -1 -1 -1 -1 -1 -1 -1 -1 -1 -1 -1 -1 -2 -2 -2 -1 -1 -1 -1 -1 -1 -1 -1 -1 -1 -1 -1 -1 -1 -1 -0 -1 -1 -1 -1 -1 -1 -1 -1 -1 -1 -1 -1 -1 -1 -0 -1 -1 -1 -1 -1 -1 -1 -2 -2 -2 -2 -2 -2 -2 -2 -2 -1 -1 -1 -1 -1 -1 -1 -2 -1 -1 -1 -1
-0 -0 -0 -0 -0 -0 -0 -0 -1 -1 -1 -1 -1 -1 -1 -1 -1 -1 -1 -1 -1 -1 -1 -1 -1 -1 -1 -1 -1 -1 -1 -1 -1 -1 -1 -1 -1 -1 -1 -1 -1 -2 -2 -2 -1 -1 -1 -1 -1 -1 -0 -0 -0 -0 -1 -1 -1 -1 -1 -0 -0 -1 -1 -1 -1 -1 -1 -1 -1 -1 -1 -1 -0 -0 -0 -0 -0 -1 -1 -1 -1 -1 -1 -2 -2 -2 -2 -2 -2 -2 -2 -1 -1 -1 -1 -1 -1 -1 -2 -2 -2 -1 -1
-0 -0 0 0 -0 -1 -0 -1 -1 -1 -1 -1 -1 -1 -1 -1 -1 -1 -1 -1 -1 -1 -1 -1 -1 -1 -1 -1 -1 -1 -1 -1 -1 -1 -1 -1 -1 -1 -1 -1 -1 -2 -2 -1 -1 -1 -1 -1 -1 -0 -0 -0 -0 -0 -1 -0 -1 -1 -1 -0 -0 -0 -0 -0 -0 -0 -1 -1 -1 -1 -1 -1 -1 -0 -0 -0 -0 -0 -0 -1 -1 -1 -1 -1 -2 -2 -2 -2 -2 -2 -2 -2 -2 -1 -1 -1 -1 -1 -2 -2 -2 -2 -2
0 0 1 0 -0 -1 -1 -1 -1 -1 -1 -1 -1 -1 -0 -1 -1 -1 -1 -1 -1 -1 -1 -1 -1 -1 -1 -1 -1 -1 -1 -1 -1 -1 -1 -1 -1 -1 -0 -0 -1 -1 -1 -1 -1 -1 -1 -0 -0 -0 -0 -0 -0 -0 -1 -0 -0 -1 -1 -0 -0 -0 -0 -0 -0 -0 -0 -1 -1 -1 -1 -1 -1 -1 -1 -1 -1 -1 -0 -1 -1 -1 -1 -1 -1 -1 -2 -2 -2 -2 -2 -2 -2 -2 -2 -2 -2 -2 -2 -2 -2 -2 -2
0 0 0 -0 -0 -1 -1 -1 -1 -1 -1 -1 -1 -1 -1 -0 -1 -1 -1 -1 -1 -1 -1 -1 -1 -1 -1 -1 -1 -1 -1 -1 -1 -1 -1 -1 -1 -0 -0 -0 -1 -1 -1 -1 -0 -1 -1 -0 -0 -0 -0 -0 -0 -0 -1 -0 -1 -1 -1 -1 -1 -0 -0 -0 -0 -0 -0 -0 -1 -1 -1 -1 -1 -1 -1 -1 -1 -1 -1 -1 -1 -1 -1 -1 -1 -2 -2 -2 -2 -2 -2 -2 -2 -2 -2 -2 -2 -2 -2 -2 -2 -2 -2
0 -0 -0 -0 -0 -1 -1 -1 -1 -1 -1 -1 -1 -1 -1 -0 -0 -1 -1 -1 -1 -1 -1 -1 -1 -1 -1 -1 -1 -1 -1 -1 -1 -1 -1 -1 -1 -0 0 -0 -1 -1 -1 -0 -0 -0 -0 -0 -0 -0 -1 -1 -1 -1 -1 -1 -1 -1 -1 -1 -1 -1 -0 -0 -0 -0 -0 -0 -1 -1 -1 -1 -1 -1 -1 -1 -1 -1 -1 -1 -1 -1 -1 -1 -1 -2 -2 -2 -2 -2 -2 -2 -2 -2 -2 -2 -2 -2 -2 -2 -2 -2 -2
0 -0 -0 -0 -1 -1 -1 -1 -1 -1 -1 -1 -1 -0 -0 -0 -0 -0 -1 -0 -0 -0 -0 -1 -1 -1 -1 -1 -1 -1 -1 -1 -1 -1 -1 -0 -0 -0 0 -0 -1 -1 -1 -0 -0 -0 -0 -0 -0 -0 -1 -0 -0 -0 -0 -0 -1 -1 -1 -1 -1 -1 -1 -0 -0 -0 -0 -1 -1 -1 -1 -1 -1 -1 -2 -2 -2 -1 -1 -1 -1 -1 -1 -1 -2 -2 -2 -2 -2 -2 -2 -2 -2 -2 -2 -2 -2 -2 -2 -2 -2 -2 -2
-0 -0 -0 -0 -1 -1 -1 -1 -0 -0 -0 -0 -0 -0 -0 -0 -0 -0 -0 -0 -0 -0 -0 -0 -0 -0 -0 -0 -0 -1 -0 -1 -1 -1 -0 -0 -0 -0 0 -0 -1 -1 -1 -0 -0 -0 -0 -0 -0 -0 -0 -0 -0 -0 -0 -0 -0 -0 -1 -1 -1 -1 -1 -0 -0 -0 -0 -1 -1 -1 -1 -1 -1 -1 -2 -2 -2 -2 -2 -2 -2 -1 -1 -2 -2 -2 -2 -2 -2 -2 -2 -2 -2 -2 -2 -2 -2 -2 -2 -2 -2 -2 -2
-0 -0 -0 -0 -0 -0 -0 -0 -0 -0 -0 -0 -0 -0 -0 -0 -0 -0 -0 -0 -0 -0 -0 -0 -0 -0 -0 -0 -0 -0 -0 -0 -0 -0 -0 -0 -0 -0 0 -1 -1 -1 -1 -0 -0 -0 -0 -0 -0 -0 -0 -0 -0 -0 -0 -0 -0 -0 -0 -1 -1 -1 -1 -1 -1 -1 -0 -1 -1 -1 -0 -1 -1 -1 -1 -2 -2 -2 -2 -2 -2 -2 -2 -2 -2 -2 -3 -2 -2 -2 -2 -2 -2 -2 -2 -2 -2 -2 -2 -2 -2 -2 -2
-0 -0 -0 -0 -0 -0 -0 -0 -0 -0 -0 -0 -0 -0 -0 -0 -0 -0 -0 -0 -0 -0 -0 -0 -0 -0 -0 -0 -0 -0 -0 -0 -0 -0 -0 -0 -0 0 0 -1 -1 -1 -1 -1 -1 -1 -1 -0 -0 -0 -0 -0 -0 -0 -0 -0 -0 -0 -0 -0 -0 -0 -1 -1 -1 -1 -1 -1 -1 -0 -0 -0 -0 -1 -1 -1 -1 -1 -1 -1 -1 -1 -1 -2 -2 -2 -3 -3 -3 -3 -2 -2 -2 -2 -2 -2 -2 -2 -1 -2 -2 -2 -2
-0 -0 -0 -0 -0 -0 -0 -0 -0 -0 -0 -0 -0 -0 -0 -0 -0 -0 -0 -0 -0 -0 -0 -0 -0 -0 -0 -0 -0 -0 -0 -0 -0 -0 -0 -0 -0 -0 -0 -1 -1 -1 -1 -1 -1 -1 -1 -1 -1 -1 -0 -0 -0 -0 -0 0 0 0 -0 -0 -0 -0 -1 -1 -1 -1 -1 -1 -1 -1 -0 -0 -0 -1 -1 -1 -1 -1 -1 -1 -1 -1 -1 -2 -2 -2 -2 -2 -3 -3 -2 -2 -2 -2 -2 -2 -2 -2 -1 -1 -2 -2 -2
-0 -0 -0 -0 -0 -0 -0 -0 -0 -0 -0 -0 -0 -0 -0 -0 -0 -0 -0 -0 -0 -0 -0 -0 -0 -0 -0 -0 -0 -0 -0 -0 -0 -0 -0 -0 -0 -0 -0 -1 -1 -1 -0 -0 -1 -1 -1 -1 -1 -1 -1 -0 -0 -0 -0 0 0 0 0 0 -0 -0 -0 -1 -1 -1 -1 -1 -1 -1 -1 -1 -1 -1 -1 -1 -1 -1 -1 -1 -1 -1 -1 -1 -1 -1 -2 -2 -2 -2 -2 -2 -2 -2 -2 -2 -2 -2 -1 -1 -1 -2 -2
0 0 -0 -0 -0 -0 -0 -0 -0 -0 -0 0 0 0 0 -0 -0 -0 -0 -0 -0 -0 -0 -0 -0 -0 -0 0 0 0 -0 -0 -0 -1 -0 -0 -0 -0 -0 -1 -1 -1 -0 -0 -1 -1 -1 -1 -1 -1 -1 -0 -0 -0 -0 -0 0 0 0 0 0 -0 -0 -0 -1 -1 -1 -1 -1 -1 -1 -1 -1 -1 -1 -2 -2 -2 -2 -1 -1 -1 -1 -1 -1 -1 -1 -1 -1 -1 -1 -2 -2 -2 -2 -2 -1 -1 -1 -1 -1 -1 -1
0 0 -0 -0 -0 -0 -0 -0 -0 -0 -0 0 0 0 0 0 -0 -0 -0 -0 -0 -0 -0 -0 -0 -0 -0 -0 0 0 0 -0 -0 -1 -0 -0 0 0 0 -1 -1 -1 -0 -0 -0 -1 -1 -1 -1 -1 -1 -0 -0 -0 -0 -0 0 0 0 0 0 0 0 -0 -0 -0 -1 -1 -1 -1 -1 -1 -1 -1 -2 -2 -2 -2 -2 -2 -1 -1 -1 -1 -1 -1 -1 -1 -1 -1 -1 -1 -1 -1 -1 -1 -1 -1 -1 -1 -1 -1 -1
0 0 0 0 -0 -0 -0 -0 -0 -0 -0 0 0 0 0 0 0 0 -0 -0 -0 -0 -0 -0 -0 -0 -0 -0 -0 -0 -0 -0 -1 -1 -0 -0 0 0 0 -0 -1 -1 -0 -0 -0 -0 -1 -1 -1 -1 -1 -1 -0 -0 -0 -0 -0 0 0 0 0 0 0 0 0 -0 -0 -1 -1 -1 -1 -1 -1 -1 -1 -1 -2 -2 -3 -3 -2 -2 -1 -1 -1 -1 -1 -1 -1 -1 -1 -1 -1 -1 -1 -1 -1 -1 -1 -1 -1 -0 -0
0 0 0 -0 -0 -0 -0 -0 0 0 0 0 0 0 0 0 0 0 -0 -0 -0 -0 -0 -0 -0 -0 -0 -0 -1 -1 -0 -1 -1 -1 -0 -0 0 0 0 -0 -1 -1 -0 -0 -0 -0 -1 -1 -1 -1 -1 -1 -1 -0 -0 -0 -0 -0 0 0 0 0 0 0 0 -0 -0 -0 -0 -0 -0 -0 -1 -1 -1 -1 -1 -1 -2 -2 -2 -2 -2 -1 -1 -1 -2 -2 -1 -1 -1 -1 -1 -1 -1 -1 -1 -1 -1 -1 -1 -1 -0
0 0 0 0 -0 -0 -0 0 0 0 0 0 0 0 0 0 0 0 0 -0 -0 -0 -0 -0 -0 -0 -0 -0 -0 -1 -1 -1 -1 -1 -1 -0 -0 0 0 -0 -0 -1 -0 -0 -0 -0 -1 -1 -1 -1 -1 -1 -1 -0 -0 -0 -0 -0 -0 -0 -0 0 0 0 0 -0 -0 -0 -0 -0 -0 -0 -0 -1 -1 -1 -1 -1 -1 -1 -1 -1 -1 -1 -1 -1 -1 -2 -2 -2 -1 -1 -1 -1 -1 -1 -1 -1 -1 -1 -1 -1 -1
0 0 0 0 -0 -0 -0 0 1 1 0 0 0 0 0 0 0 0 0 0 -0 -0 -0 -0 -0 -0 -0 -0 -0 -0 -1 -1 -1 -1 -1 -0 -0 0 0 0 -0 -1 -0 -0 -0 -0 -0 -0 -1 -1 -1 -1 -1 -0 -0 -0 -0 -0 -0 -0 -0 0 0 0 0 0 -0 -0 -0 -0 -0 -0 -0 -0 -1 -1 -0 -0 -1 -0 -0 -0 -0 -0 -0 -1 -1 -1 -1 -2 -2 -2 -1 -1 -1 -1 -0 -0 -0 -1 -1 -1 -1
0 0 1 0 -0 -0 -0 0 0 0 0 1 1 0 0 0 0 0 0 0 -0 -0 -0 -0 -0 -0 -0 -0 -0 -0 -0 -0 -0 -1 -1 -0 -0 0 0 0 -0 -0 -0 -0 -0 -0 -0 -0 -0 -0 -1 -1 -0 -0 -0 -0 -0 -0 -0 -0 -0 0 0 0 0 0 -0 -0 -0 -1 -1 -1 -1 -1 -1 -0 -0 -0 -1 -1 -1 -0 -0 -0 -0 -0 -0 -0 -0 -1 -1 -1 -1 -1 -1 -1 -1 -0 -0 -0 -0 -0 -0
0 1 1 1 1 0 0 1 0 0 0 1 1 1 0 0 0 0 0 0 0 -0 -0 -0 -0 -0 -0 -0 -0 -0 -0 -0 -0 -0 -0 -0 -0 -0 0 0 -0 -0 -0 0 0 -0 -0 -0 -0 -0 -0 -0 -0 -0 -0 -0 -0 -0 -0 -0 -0 0 0 0 0 -0 -0 -0 -1 -1 -1 -1 -1 -1 -1 -1 -1 -0 -0 -1 -1 -1 -1 -0 -0 0 0 0 0 0 0 -0 -0 -1 -1 -1 -1 -1 -1 -0 -0 -0 -0
1 1 1 1 1 1 1 1 1 1 0 1 1 1 0 0 -0 -0 -0 0 0 -0 -0 -0 -0 -0 -0 -0 -0 -0 -0 -0 -0 -0 -0 -0 -0 0 0 1 0 -0 -0 0 0 -0 -0 0 0 -0 -0 -0 -0 -0 -0 -0 -0 -0 -0 -0 0 0 0 0 0 -0 -0 -0 -1 -1 -1 -1 -1 -1 -1 -1 -1 -1 -1 -1 -1 -1 -1 -1 -1 -0 -0 0 1 1 1 1 1 1 0 -0 -1 -1 -1 -1 -1 -1 -0
1 1 1 1 1 0 1 1 1 1 0 -0 -0 -0 -0 -0 -0 -0 -0 0 0 0 -0 -0 -0 -0 -0 -0 -0 -0 -0 -0 -0 -0 -0 -0 -0 0 0 1 0 -0 -0 0 0 0 -0 0 0 -0 -0 -0 -0 -0 -0 -0 -0 0 0 0 0 0 0 0 0 0 -0 -0 -1 -1 -1 -1 -1 -1 -1 -1 -1 -1 -1 -1 -1 -1 -1 -1 -1 -1 -1 -1 -0 0 1 1 1 1 1 1 0 -0 -1 -1 -1 -1 -1
0 0 0 -0 -0 -1 -0 0 1 1 -0 -0 -1 -0 -0 -0 -0 -0 -0 0 0 -0 -0 -0 -1 -1 -0 -0 -0 -0 -0 -0 -0 -0 -0 -0 0 0 1 1 0 -0 -0 -0 0 0 0 0 0 0 0 0 -0 -0 -0 0 0 0 0 0 0 0 0 0 0 0 -0 -0 -1 -1 -1 -1 -1 -1 -1 -1 -1 -1 -1 -1 -1 -1 -1 -1 -1 -2 -2 -2 -1 -1 -1 -0 0 1 1 1 1 1 0 -0 -1 -1 -1
-0 -0 -0 -1 -1 -1 -1 -0 0 0 -0 -0 -0 -0 -0 -0 -0 -0 -0 -0 0 -0 -0 -1 -1 -1 -1 -0 -0 -0 -0 -0 -0 -0 -0 0 0 0 1 1 1 0 -0 -0 0 0 0 0 0 0 0 0 -0 -0 -0 -0 -0 0 0 0 0 0 0 0 0 0 -0 -0 -0 -1 -1 -1 -1 -1 -1 -1 -1 -1 -2 -1 -1 -1 -1 -1 -1 -1 -2 -2 -2 -2 -2 -1 -1 -0 0 1 1 1 1 1 0 -0 -1
0 -0 -0 -1 -1 -1 -1 -0 0 1 0 0 0 0 0 -0 -0 -0 -0 -0 -0 -0 -0 -0 -1 -1 -1 -1 -1 -0 -1 -1 -0 -0 -0 -0 0 0 1 1 1 1 0 -0 -0 0 0 0 0 0 0 0 -0 -0 -0 -0 -0 -0 -0 0 0 0 0 0 -0 -0 -0 -0 -0 -0 -0 -1 -1 -1 -1 -1 -1 -1 -2 -2 -1 -1 -1 -1 -1 -1 -1 -1 -2 -2 -2 -2 -2 -2 -1 -1 -0 0 1 1 0 0 -0
0 0 -0 -0 -0 -0 -0 0 1 1 1 1 1 0 0 -0 -0 -1 -1 -1 -0 -0 -0 -0 -0 -1 -1 -1 -1 -1 -1 -1 -1 -1 -1 -0 -0 -0 0 1 1 1 0 -0 -0 -0 0 1 1 0 0 0 -0 -0 -0 -0 -0 -0 0 0 0 0 0 0 -0 -0 0 -0 -0 -0 -0 -0 -1 -1 -1 -1 -1 -1 -1 -1 -1 -1 -1 -1 -1 -1 -1 -1 -1 -1 -2 -2 -2 -2 -2 -2 -1 -0 -0 0 0 0 0
0 0 0 0 0 0 0 1 1 2 1 1 0 -0 -0 -1 -1 -1 -1 -1 -0 -0 0 0 -0 -0 -1 -1 -1 -1 -1 -1 -1 -1 -1 -1 -0 -0 -0 0 1 1 1 0 -0 -0 -0 0 1 1 0 0 0 -0 -0 -0 -0 -0 0 0 0 0 0 0 0 0 0 0 0 0 -0 -0 -0 -1 -1 -1 -1 -1 -1 -1 -1 -1 -1 -1 -1 -1 -1 -1 -1 -1 -1 -2 -2 -2 -3 -2 -2 -1 -1 -0 -0 0 0
0 0 1 1 1 1 1 1 1 2 1 0 -0 -1 -1 -1 -1 -1 -1 -1 -1 -0 0 1 0 -0 -1 -1 -1 -1 -1 -1 -1 -1 -1 -1 -0 -0 -0 -0 0 0 1 1 0 -0 -1 -0 1 1 1 1 0 -0 -0 -0 -0 -0 -0 -0 -0 -0 -0 -0 0 0 1 1 0 0 0 -0 -0 -0 -0 -1 -1 -1 -1 -1 -1 -1 -1 -1 -1 -1 -1 -1 -1 -1 -1 -1 -2 -2 -2 -2 -2 -2 -1 -1 -1 -0 -0
0 1 1 1 1 1 1 1 1 1 1 -0 -1 -1 -1 -0 -0 -0 -1 -1 -1 -0 0 1 1 0 -0 -0 -1 -1 -1 -1 -1 -1 -1 -1 -0 -0 -0 -0 -0 -0 0 1 1 0 -1 -1 -0 0 1 1 1 0 -0 -0 -0 -0 -0 -0 -0 -0 -0 -0 0 0 1 1 1 0 0 0 -0 -0 -0 -0 -1 -1 -1 -1 -1 -1 -1 -1 -1 -1 -1 -1 -1 -1 -1 -1 -1 -2 -2 -2 -2 -2 -2 -2 -1 -1 -1
1 1 1 1 1 1 1 1 1 0 0 -0 -1 -1 -1 -1 -0 -0 -0 -1 -1 -0 -0 0 1 1 0 -0 -0 -1 -1 -1 -1 -1 -1 -1 -1 -0 -0 -0 -0 -0 -0 0 1 1 0 -0 -0 -0 0 0 1 1 0 -0 -0 -0 -0 -0 -0 -0 0 0 0 1 1 1 1 1 0 0 0 -0 -0 -0 -0 -0 -1 -1 -1 -1 -1 -1 -1 -1 -1 -1 -1 -1 -1 -1 -1 -1 -2 -2 -2 -2 -3 -2 -2 -2 -1
1 1 1 1 1 1 1 0 0 -0 -0 -1 -1 -1 -1 -1 -0 -0 -0 -0 -0 -0 -0 0 0 1 1 0 -0 -1 -1 -1 -1 -1 -1 -1 -1 -1 -0 -0 -0 -0 -0 -0 0 1 1 1 0 -0 -0 0 0 0 0 0 -0 -0 -0 -0 0 0 1 1 1 1 1 1 1 0 0 0 0 -0 -0 -0 -0 -0 -0 -1 -0 -0 -0 -1 -1 -1 -1 -1 -2 -2 -2 -2 -2 -2 -2 -2 -2 -2 -3 -3 -2 -2 -2
0 0 0 1 1 1 0 0 -0 -0 -1 -1 -1 -1 -1 -1 -1 -0 -0 -0 -0 -0 -0 -0 0 0 1 1 0 -0 -1 -1 -1 -1 -1 -1 -1 -1 -1 -1 -0 -0 -0 -0 -0 0 1 1 1 1 1 0 0 0 -0 0 0 -0 -0 0 0 0 1 1 1 1 1 0 0 0 0 0 0 -0 -0 -0 -0 -0 -0 -0 -0 -0 -0 -0 -1 -1 -1 -1 -2 -2 -2 -2 -2 -2 -2 -2 -2 -2 -2 -2 -2 -2 -2
0 0 0 0 0 0 1 0 0 -0 -1 -1 -1 -1 -1 -1 -1 -1 -1 -1 -0 -0 -0 -0 0 0 1 1 0 -0 -0 -0 -1 -1 -1 -1 -1 -1 -1 -1 -1 -0 -0 -0 -0 0 1 1 1 1 1 1 1 1 0 0 0 0 -0 -0 -0 -0 -0 -0 -0 -0 -0 -0 -0 -0 -0 -0 -0 -0 -0 -0 -0 -0 -0 -0 -0 -0 -0 -0 -0 -1 -1 -1 -2 -2 -2 -2 -2 -2 -2 -2 -2 -2 -2 -2 -2 -2 -1
1 1 1 1 1 1 1 1 1 0 -0 -0 -1 -1 -0 -0 -0 -1 -1 -1 -1 -0 0 0 0 0 1 1 1 0 -0 -0 -0 -0 -1 -1 -1 -1 -1 -1 -1 -1 -0 -0 -0 -0 0 0 1 1 1 1 1 1 1 1 0 0 0 -0 -0 -1 -1 -1 -1 -1 -1 -0 -0 -0 -0 -0 -0 -0 -0 -0 -0 -0 -0 -0 -0 -0 -0 -0 -0 -1 -1 -1 -2 -2 -2 -2 -2 -2 -2 -2 -2 -2 -2 -2 -2 -1 -1
1 1 1 1 1 1 1 1 1 1 0 -0 -0 -0 -0 -0 -0 -1 -1 -1 -1 -1 -0 0 0 0 1 1 1 1 0 0 -0 -0 -1 -1 -1 -1 -1 -1 -1 -1 -1 -0 -0 -0 -0 -0 0 0 1 1 1 1 1 1 1 1 1 0 -0 -0 -0 -0 -0 -0 -1 -1 -0 -0 -0 -0 -0 -0 -0 -0 -0 -0 -0 -0 -0 -0 -0 -0 -0 -1 -1 -1 -2 -2 -2 -2 -2 -2 -2 -2 -2 -2 -2 -2 -2 -1 -1
0 1 1 1 1 1 1 1 1 1 0 -0 -0 -0 -0 -0 -0 -0 -1 -1 -1 -1 -0 -0 0 0 0 0 1 1 1 0 -0 -0 -0 -1 -1 -1 -1 -1 -1 -1 -1 -1 -0 -0 -0 -0 0 0 0 0 0 1 1 1 1 1 1 1 1 1 1 1 0 0 0 -0 -0 -0 -0 -0 -0 -1 -1 -0 -0 -0 -0 -0 -0 -0 -0 -0 -0 -0 -1 -1 -2 -2 -2 -1 -1 -1 -1 -1 -1 -1 -2 -2 -2 -2 -1
0 0 0 1 1 1 1 1 1 1 0 -0 -0 -0 -0 0 -0 -0 -1 -1 -1 -1 -1 -0 -0 0 0 0 0 1 1 0 -0 -0 -0 -0 -0 -1 -1 -1 -1 -1 -1 -1 -0 -0 0 0 0 0 0 0 0 0 0 1 1 1 1 1 1 1 1 1 1 1 1 1 0 -0 -0 -0 -1 -1 -1 -1 -1 -1 -1 -1 -1 -1 -1 -1 -0 -1 -1 -1 -1 -2 -2 -1 -1 -1 -0 0 1 1 1 -0 -1 -1 -1
-0 -0 -0 0 1 1 1 1 1 1 0 -0 -0 -0 -0 0 0 0 -0 -1 -1 -1 -1 -0 -0 -0 0 0 0 0 0 0 0 -0 -0 -0 -0 -0 -1 -1 -1 -1 -1 -1 -0 -0 0 0 0 0 0 0 0 0 0 0 1 1 0 0 1 1 1 1 1 1 1 1 1 0 -0 -0 -1 -1 -1 -1 -1 -1 -1 -0 -0 -1 -1 -1 -1 -1 -1 -1 -1 -1 -1 -1 -0 0 1 2 4 5 4 3 1 0 -0
0 -0 -0 0 0 1 1 1 1 1 1 0 -0 -0 0 0 1 0 -0 -0 -1 -0 -0 -0 -0 -0 -0 0 0 0 0 1 0 -0 -0 -0 -0 -0 -0 -1 -1 -1 -1 -1 -0 -0 -0 -0 0 1 1 0 0 0 0 0 0 0 -0 0 0 0 0 0 0 0 1 1 1 0 -0 -0 -0 -1 -1 -1 -1 -1 -1 -1 -1 -1 -1 -1 -1 -1 -1 -1 -1 -1 -1 -1 -0 0 1 3 4 4 3 2 1 1 1
0 -0 -0 -0 0 1 1 1 1 1 1 0 0 0 1 1 1 1 0 -0 -0 -0 -0 0 0 -0 -0 -0 0 0 0 1 0 0 0 0 0 -0 -0 -0 -0 -1 -1 -1 -0 0 0 -0 0 1 0 0 -0 -0 0 0 0 0 -0 -0 -0 -0 -1 -1 -0 -0 1 1 1 1 -0 -0 -0 -0 -0 -0 -0 -1 -1 -1 -1 -1 -1 -1 -1 -1 -1 -1 -1 -1 -1 -1 -1 -0 1 2 2 2 1 1 0 0 1
-0 -0 -0 -0 0 1 1 1 2 2 1 1 1 1 1 1 2 1 1 -0 -0 -0 -0 0 0 0 0 0 0 0 -0 -0 0 -0 -0 0 0 -0 -0 -0 -1 -1 0 -0 -0 -0 0 0 0 0 0 -0 -0 -0 0 1 1 1 0 -0 -0 -0 -1 -1 -1 -1 0 1 1 0 -0 -0 -0 0 1 0 0 0 -0 -1 -1 -1 -1 -1 -1 -1 -1 -1 -1 -1 -1 -1 -1 -0 1 1 1 1 0 1 0 0 0
-0 -0 -0 -0 0 0 0 1 2 2 1 1 1 1 1 2 2 2 1 0 -0 -0 -0 -0 0 1 1 1 1 0 -0 -1 -0 -0 -1 -0 -0 0 0 -0 -1 -0 1 0 -0 0 1 1 0 -0 -1 -1 -1 -0 0 1 1 1 1 1 -0 -0 -0 -1 -1 -1 -0 0 0 -0 -1 -1 -0 0 1 1 1 1 1 1 0 -0 -1 -1 -1 -1 -1 -1 -2 -2 -2 -1 -1 -0 0 0 -0 -0 0 1 1 0 0
0 0 -0 -0 0 0 1 1 1 2 1 1 1 1 1 2 2 2 2 1 0 -0 -0 -0 0 1 1 2 1 1 -0 -1 -1 -1 -0 -0 -0 -1 -1 -0 0 0 1 -0 -1 -0 3 3 2 -0 -0 -1 -1 -1 0 1 1 1 1 1 1 0 -0 -0 -1 -0 -0 0 -0 -0 -1 -2 -2 -1 -0 0 1 1 1 2 2 1 0 -0 -0 -0 -1 -1 -1 -1 -1 -1 -0 0 -0 -1 -1 -1 -1 -1 -1 -0 -0
1 1 -0 -0 -0 0 1 1 1 1 1 1 1 1 2 2 2 2 2 1 1 0 -0 -0 0 0 1 1 2 1 1 0 -0 -1 -1 -0 -0 -1 -1 -1 -0 0 0 -0 -1 -1 1 1 1 1 1 1 -0 -1 -1 0 1 1 1 1 2 1 1 0 0 0 1 1 0 -0 -0 -1 -2 -2 -2 -1 -1 -0 0 1 1 1 1 1 1 1 0 -0 -1 -1 -0 1 2 2 0 -1 -2 -3 -3 -3 -3 -3 -2
2 1 1 0 0 0 0 1 1 1 1 1 1 1 1 2 2 2 3 2 2 1 0 0 0 0 0 1 1 2 2 2 1 -0 -1 -0 -0 -0 -1 -1 -1 -1 -0 -0 -0 -0 -0 0 -0 -0 1 3 2 0 -1 -0 0 1 2 1 1 1 1 1 1 1 1 1 1 0 0 -0 -0 -1 -2 -2 -1 -1 -0 -0 -0 -0 -0 0 1 2 2 0 -1 -1 0 3 4 4 1 -1 -2 -2 -3 -3 -3 -3 -3
1 2 2 1 1 -0 -0 0 1 1 1 1 0 0 1 1 2 3 4 3 2 1 0 -0 -0 0 0 0 1 1 2 2 2 0 -1 -1 0 1 0 -0 -0 -1 -1 -1 -1 -1 -1 1 0 -1 -1 2 3 3 2 0 -0 0 2 2 1 0 -0 -0 0 1 1 1 1 0 -0 -0 -0 -0 -1 -1 -1 -1 -0 -0 -0 -1 -1 -0 1 2 3 1 -0 -0 1 5 6 5 2 -0 -1 -2 -2 -2 -2 -2 -2
0 1 2 2 1 0 -0 0 0 1 1 1 0 0 0 1 2 3 4 3 3 2 1 0 0 -0 -0 -0 0 1 2 2 2 1 -1 -0 0 1 1 0 0 -0 -1 -1 -1 -1 -1 -1 -1 -1 -2 -1 1 3 4 2 1 0 0 1 0 0 0 0 0 0 0 1 1 0 -0 -1 -0 -0 -0 -0 -0 -0 -0 -1 -1 -1 -1 -1 -0 1 2 0 -1 -0 2 7 8 5 2 0 -1 -2 -2 -2 -2 -1 -1
-1 0 1 1 1 1 1 1 1 1 1 1 1 0 1 1 2 2 2 3 3 2 2 1 0 -0 -0 -0 0 1 1 2 1 1 -0 0 1 1 0 -0 -0 -0 0 0 -0 -0 -1 -2 -1 -1 -1 -3 -2 1 3 3 2 2 1 1 -0 -1 -0 0 1 1 1 0 0 -0 -1 -1 -1 -0 -0 0 0 -0 -0 -0 -0 -0 -0 -0 -0 -0 -0 -1 -1 -0 4 9 8 5 2 0 -1 -2 -2 -2 -2 -1 -0
-1 -1 -0 0 1 1 1 1 1 1 2 1 1 1 1 2 2 1 2 2 3 3 2 2 1 0 -0 -0 -0 0 1 1 1 1 1 1 1 1 -0 -0 -0 -0 -0 0 0 0 -0 -1 -1 -1 -1 -3 -3 -3 -0 3 4 3 2 2 1 -0 -1 -0 1 1 1 1 0 -0 -0 -0 -0 -0 -0 0 0 0 0 1 1 1 1 0 -0 -0 -1 -1 -2 -1 4 8 8 5 2 1 -0 -1 -2 -2 -2 -1 -0
-2 -2 -1 -0 0 1 1 1 1 1 2 2 1 1 1 1 1 1 1 2 3 3 3 2 2 1 0 -0 -0 -0 0 0 1 1 1 1 1 1 0 -0 0 0 -0 -0 0 1 0 -0 -0 -0 -1 -2 -4 -5 -4 1 3 4 2 3 2 1 -0 1 1 1 0 1 1 1 1 1 1 1 1 1 1 1 2 2 3 3 2 1 0 -0 -1 -1 -2 -2 1 4 5 5 3 1 0 -1 -1 -2 -2 -1 -1
Height
3153 3153 3153 3154 3154 3154 3154 3155 3155 3155 3155 3155 3155 3155 3155 3156 3156 3156 3156 3156 3156 3156 3156 3156 3156 3156 3156 3156 3156 3156 3156 3156 3156 3156 3156 3155 3155 3155 3155 3155 3155 3155 3155 3154 3154 3153 3153 3152 3152 3151 3151 3151 3150 3150 3150 3149 3149 3149 3148 3148 3148 3147 3147 3147 3146 3146 3146 3145 3145 3145 3145 3145 3144 3144 3143 3143 3143 3142 3142 3142 3142 3141 3141 3141 3140 3140 3140 3140 3139 3139 3138 3138 3137 3137 3136 3136 3136 3135 3135 3135 3135 3134 3134
3152 3153 3153 3153 3154 3154 3154 3154 3155 3155 3155 3155 3155 3155 3155 3155 3155 3155 3156 3156 3156 3156 3156 3156 3156 3156 3155 3155 3155 3155 3155 3155 3155 3155 3155 3155 3155 3155 3155 3155 3155 3155 3155 3154 3154 3153 3152 3152 3152 3151 3151 3150 3150 3150 3150 3149 3149 3149 3148 3148 3148 3147 3147 3146 3146 3146 3145 3145 3145 3145 3144 3144 3144 3144 3143 3143 3143 3142 3142 3142 3141 3141 3141 3141 3140 3140 3140 3139 3139 3139 3138 3138 3137 3137 3136 3136 3135 3135 3135 3135 3134 3133 3133
3152 3152 3153 3153 3153 3154 3154 3154 3154 3154 3155 3155 3155 3155 3155 3155 3155 3155 3155 3155 3155 3155 3155 3155 3155 3155 3155 3155 3155 3155 3155 3155 3155 3155 3155 3155 3155 3155 3155 3155 3155 3155 3155 3154 3153 3153 3152 3152 3152 3151 3151 3150 3150 3150 3150 3149 3149 3148 3148 3148 3147 3147 3146 3146 3146 3145 3145 3145 3145 3144 3144 3144 3144 3143 3143 3143 3143 3142 3142 3142 3142 3141 3141 3141 3140 3140 3140 3139 3139 3139 3138 3138 3137 3137 3136 3135 3135 3135 3134 3134 3134 3133 3132
3152 3152 3152 3153 3153 3153 3153 3154 3154 3154 3154 3154 3154 3155 3155 3155 3155 3155 3155 3155 3155 3155 3155 3155 3155 3155 3155 3155 3155 3155 3155 3155 3155 3155 3155 3155 3155 3155 3155 3155 3155 3155 3154 3154 3153 3153 3152 3152 3151 3151 3151 3150 3150 3150 3150 3149 3149 3148 3148 3147 3147 3147 3146 3146 3146 3145 3145 3145 3145 3144 3144 3144 3144 3143 3143 3143 3143 3142 3142 3142 3142 3141 3141 3141 3140 3140 3140 3139 3139 3138 3138 3137 3137 3136 3136 3135 3135 3134 3134 3133 3133 3132 3132
3151 3152 3152 3152 3153 3153 3153 3153 3153 3154 3154 3154 3154 3154 3154 3154 3154 3155 3155 3155 3155 3155 3155 3155 3155 3155 3155 3155 3155 3155 3155 3155 3155 3155 3155 3155 3155 3155 3155 3155 3154 3154 3154 3153 3153 3152 3152 3152 3151 3151 3151 3150 3150 3150 3149 3149 3149 3148 3148 3147 3147 3146 3146 3146 3145 3145 3145 3145 3145 3144 3144 3144 3144 3144 3143 3143 3143 3143 3142 3142 3142 3141 3141 3141 3140 3140 3140 3139 3139 3138 3138 3137 3136 3136 3135 3135 3134 3134 3133 3133 3132 3132 3131
3151 3151 3152 3152 3152 3153 3153 3153 3153 3153 3153 3153 3154 3154 3154 3154 3154 3154 3154 3154 3154 3154 3154 3155 3155 3155 3155 3155 3155 3155 3155 3155 3155 3155 3154 3154 3154 3154 3154 3154 3154 3154 3153 3153 3153 3152 3152 3152 3151 3151 3150 3150 3150 3150 3149 3149 3148 3148 3148 3147 3147 3147 3146 3146 3145 3145 3145 3145 3145 3145 3144 3144 3144 3144 3143 3143 3143 3143 3142 3142 3142 3141 3141 3141 3140 3140 3140 3139 3139 3138 3137 3137 3136 3136 3135 3135 3134 3133 3133 3132 3131 3131 3130
3151 3151 3151 3152 3152 3152 3152 3153 3153 3153 3153 3153 3153 3153 3153 3154 3153 3153 3154 3154 3154 3154 3154 3154 3154 3154 3154 3155 3155 3155 3155 3155 3154 3154 3154 3154 3154 3154 3154 3154 3154 3153 3153 3153 3152 3152 3152 3151 3151 3151 3150 3150 3150 3149 3149 3149 3148 3148 3147 3147 3147 3147 3146 3145 3145 3145 3145 3145 3145 3145 3144 3144 3144 3144 3144 3143 3143 3143 3142 3142 3142 3141 3141 3141 3140 3140 3140 3139 3138 3138 3137 3137 3136 3135 3135 3134 3134 3133 3132 3131 3131 3130 3130
3150 3151 3151 3151 3152 3152 3152 3152 3152 3152 3153 3153 3153 3153 3153 3153 3153 3153 3153 3154 3154 3154 3154 3154 3154 3154 3154 3154 3154 3154 3154 3154 3154 3154 3154 3154 3154 3154 3154 3154 3153 3153 3153 3152 3152 3152 3152 3151 3151 3150 3150 3150 3149 3149 3149 3148 3148 3147 3147 3147 3146 3146 3146 3146 3145 3145 3145 3145 3145 3145 3144 3144 3144 3144 3144 3143 3143 3143 3142 3142 3142 3141 3141 3140 3140 3140 3139 3139 3138 3138 3137 3136 3136 3135 3134 3134 3133 3132 3132 3131 3130 3130 3129
3150 3150 3151 3151 3151 3152 3152 3152 3152 3152 3152 3152 3153 3153 3153 3153 3153 3153 3153 3153 3153 3154 3154 3154 3154 3154 3154 3154 3154 3154 3154 3154 3154 3154 3154 3154 3154 3154 3154 3153 3153 3153 3152 3152 3152 3152 3151 3151 3150 3150 3150 3150 3149 3149 3148 3148 3148 3147 3147 3147 3146 3146 3146 3146 3145 3145 3145 3145 3145 3145 3145 3144 3144 3144 3144 3143 3143 3143 3142 3142 3142 3141 3141 3140 3140 3139 3139 3138 3138 3137 3137 3136 3135 3135 3134 3134 3133 3132 3131 3131 3130 3129 3129
3150 3150 3151 3151 3151 3151 3151 3151 3152 3152 3152 3152 3152 3152 3152 3152 3153 3153 3153 3153 3153 3153 3153 3153 3153 3153 3153 3154 3154 3154 3154 3154 3154 3154 3154 3154 3153 3153 3153 3153 3153 3152 3152 3152 3151 3151 3151 3151 3150 3150 3150 3149 3149 3149 3148 3148 3148 3147 3147 3147 3146 3146 3146 3146 3145 3145 3145 3145 3145 3145 3145 3144 3144 3144 3144 3143 3143 3143 3142 3142 3141 3141 3141 3140 3140 3139 3139 3138 3138 3137 3136 3136 3135 3134 3134 3133 3132 3132 3131 3130 3130 3129 3128
3150 3150 3150 3150 3151 3151 3151 3151 3151 3151 3152 3152 3152 3152 3152 3152 3152 3152 3152 3153 3153 3153 3153 3153 3153 3153 3153 3153 3153 3153 3153 3153 3153 3153 3153 3153 3153 3153 3153 3153 3152 3152 3152 3151 3151 3151 3151 3150 3150 3150 3150 3149 3149 3148 3148 3148 3147 3147 3147 3147 3146 3146 3146 3146 3146 3145 3145 3145 3145 3145 3145 3144 3144 3144 3144 3143 3143 3143 3142 3142 3141 3141 3140 3140 3140 3139 3138 3138 3137 3137 3136 3135 3135 3134 3133 3132 3132 3131 3130 3130 3129 3128 3128
3149 3150 3150 3150 3150 3151 3151 3151 3151 3151 3151 3151 3151 3151 3152 3152 3152 3152 3152 3152 3152 3152 3152 3152 3153 3153 3153 3153 3153 3153 3153 3153 3153 3153 3153 3153 3153 3153 3153 3152 3152 3152 3151 3151 3151 3151 3150 3150 3150 3150 3149 3149 3149 3148 3148 3148 3147 3147 3147 3147 3146 3146 3146 3146 3146 3145 3145 3145 3145 3145 3145 3145 3144 3144 3144 3143 3143 3143 3142 3142 3141 3141 3140 3140 3139 3139 3138 3138 3137 3136 3135 3135 3134 3134 3133 3132 3131 3131 3130 3129 3129 3128 3127
3149 3149 3150 3150 3150 3150 3150 3150 3151 3151 3151 3151 3151 3151 3151 3151 3151 3152 3152 3152 3152 3152 3152 3152 3152 3152 3152 3152 3152 3152 3152 3152 3152 3152 3152 3152 3152 3152 3152 3152 3152 3151 3151 3151 3151 3150 3150 3150 3150 3149 3149 3149 3148 3148 3148 3148 3147 3147 3147 3147 3146 3146 3146 3146 3146 3145 3145 3145 3145 3145 3145 3145 3144 3144 3144 3143 3143 3143 3142 3142 3141 3140 3140 3140 3139 3138 3138 3137 3136 3136 3135 3135 3134 3133 3132 3132 3131 3130 3129 3129 3128 3127 3127
3149 3149 3149 3150 3150 3150 3150 3150 3150 3150 3150 3150 3151 3151 3151 3151 3151 3151 3151 3151 3151 3151 3152 3152 3152 3152 3152 3152 3152 3152 3152 3152 3152 3152 3152 3152 3152 3152 3152 3152 3151 3151 3151 3150 3150 3150 3150 3150 3150 3149 3149 3149 3148 3148 3148 3147 3147 3147 3147 3147 3146 3146 3146 3146 3146 3145 3145 3145 3145 3145 3145 3145 3144 3144 3144 3143 3143 3143 3142 3141 3141 3140 3140 3139 3139 3138 3138 3137 3136 3135 3135 3134 3133 3133 3132 3131 3130 3130 3129 3128 3127 3127 3126
3148 3149 3149 3149 3149 3150 3150 3150 3150 3150 3150 3150 3150 3150 3151 3151 3151 3151 3151 3151 3151 3151 3151 3151 3151 3151 3152 3152 3152 3152 3152 3152 3152 3152 3152 3152 3152 3152 3151 3151 3151 3151 3150 3150 3150 3150 3150 3150 3149 3149 3149 3148 3148 3148 3148 3147 3147 3147 3147 3147 3146 3146 3146 3146 3146 3145 3145 3145 3145 3145 3145 3145 3144 3144 3144 3143 3143 3142 3142 3141 3141 3140 3140 3139 3138 3138 3137 3137 3136 3135 3135 3134 3133 3132 3131 3130 3130 3129 3128 3128 3127 3126 3125
3148 3148 3148 3149 3149 3149 3149 3149 3149 3150 3150 3150 3150 3150 3150 3150 3150 3150 3150 3150 3151 3151 3151 3151 3151 3151 3151 3151 3151 3151 3151 3151 3151 3151 3151 3151 3151 3151 3151 3151 3151 3150 3150 3150 3150 3150 3150 3149 3149 3149 3148 3148 3148 3148 3148 3147 3147 3147 3147 3146 3146 3146 3146 3146 3146 3145 3145 3145 3145 3145 3145 3144 3144 3144 3143 3143 3143 3142 3142 3141 3140 3140 3139 3139 3138 3137 3137 3136 3135 3135 3134 3133 3133 3132 3131 3130 3129 3129 3128 3127 3126 3125 3125
3147 3147 3148 3148 3148 3149 3149 3149 3149 3149 3149 3150 3150 3150 3150 3150 3150 3150 3150 3150 3150 3150 3151 3151 3151 3151 3151 3151 3151 3151 3151 3151 3151 3151 3151 3151 3151 3151 3151 3151 3150 3150 3150 3150 3150 3149 3149 3149 3149 3148 3148 3148 3148 3148 3147 3147 3147 3147 3147 3146 3146 3146 3146 3146 3146 3145 3145 3145 3145 3145 3144 3144 3144 3143 3143 3143 3142 3142 3141 3141 3140 3140 3139 3138 3138 3137 3136 3136 3135 3135 3134 3133 3132 3131 3130 3130 3129 3128 3127 3127 3126 3125 3125
3147 3147 3147 3147 3148 3148 3148 3148 3148 3149 3149 3149 3149 3150 3149 3150 3150 3150 3150 3150 3150 3150 3150 3150 3150 3150 3151 3151 3151 3151 3151 3151 3151 3151 3151 3151 3151 3151 3150 3150 3150 3150 3150 3150 3149 3149 3149 3149 3148 3148 3148 3148 3148 3147 3147 3147 3147 3147 3146 3146 3146 3146 3146 3146 3145 3145 3145 3145 3145 3145 3144 3144 3143 3143 3143 3142 3142 3141 3141 3140 3140 3139 3139 3138 3137 3137 3136 3135 3135 3134 3133 3133 3132 3131 3130 3129 3129 3128 3127 3126 3125 3125 3124
3146 3146 3147 3147 3147 3147 3148 3148 3148 3148 3148 3149 3149 3149 3149 3149 3149 3150 3150 3150 3150 3150 3150 3150 3150 3150 3150 3150 3150 3150 3150 3150 3150 3150 3150 3150 3150 3150 3150 3150 3150 3150 3149 3149 3149 3149 3149 3148 3148 3148 3148 3147 3147 3147 3147 3147 3147 3146 3146 3146 3146 3146 3146 3145 3145 3145 3145 3145 3145 3144 3144 3144 3143 3143 3142 3142 3142 3141 3141 3140 3140 3139 3138 3138 3137 3136 3136 3135 3134 3134 3133 3132 3131 3130 3130 3129 3128 3127 3126 3125 3125 3124 3123
3145 3146 3146 3146 3147 3147 3147 3147 3148 3148 3148 3148 3148 3149 3149 3149 3149 3149 3149 3149 3150 3150 3150 3150 3150 3150 3150 3150 3150 3150 3150 3150 3150 3150 3150 3150 3150 3150 3150 3150 3149 3149 3149 3149 3149 3149 3148 3148 3148 3148 3147 3147 3147 3147 3147 3147 3146 3146 3146 3146 3146 3146 3145 3145 3145 3145 3145 3145 3144 3144 3144 3143 3143 3142 3142 3142 3141 3141 3140 3140 3139 3139 3138 3137 3137 3136 3135 3135 3134 3133 3132 3131 3131 3130 3129 3128 3127 3127 3126 3125 3124 3124 3123
3145 3145 3145 3146 3146 3146 3147 3147 3147 3147 3147 3148 3148 3148 3148 3149 3149 3149 3149 3149 3149 3149 3149 3149 3150 3150 3150 3150 3150 3150 3150 3150 3150 3150 3150 3150 3150 3150 3150 3149 3149 3149 3149 3149 3148 3148 3148 3148 3148 3147 3147 3147 3147 3147 3147 3146 3146 3146 3146 3146 3146 3145 3145 3145 3145 3145 3145 3144 3144 3144 3143 3143 3143 3142 3142 3141 3141 3140 3140 3140 3139 3138 3138 3137 3136 3135 3135 3134 3133 3132 3132 3131 3130 3130 3129 3128 3127 3126 3125 3125 3124 3123 3122
3144 3145 3145 3145 3145 3146 3146 3146 3147 3147 3147 3147 3148 3148 3148 3148 3148 3148 3148 3148 3149 3149 3149 3149 3149 3149 3149 3149 3149 3150 3150 3150 3150 3150 3150 3150 3150 3150 3149 3149 3149 3149 3148 3148 3148 3148 3148 3148 3147 3147 3147 3147 3147 3146 3146 3146 3146 3146 3146 3146 3145 3145 3145 3145 3145 3145 3144 3144 3144 3143 3143 3143 3142 3142 3141 3141 3140 3140 3140 3139 3139 3138 3137 3137 3136 3135 3134 3134 3133 3132 3131 3130 3130 3129 3128 3127 3126 3126 3125 3124 3123 3122 3122
3144 3144 3145 3145 3145 3145 3145 3146 3146 3146 3147 3147 3147 3147 3147 3148 3148 3148 3148 3148 3148 3148 3148 3148 3148 3149 3149 3149 3149 3149 3149 3149 3149 3149 3149 3149 3149 3149 3149 3148 3148 3148 3148 3148 3148 3148 3147 3147 3147 3147 3147 3146 3146 3146 3146 3146 3146 3146 3146 3145 3145 3145 3145 3145 3145 3144 3144 3144 3143 3143 3143 3142 3142 3141 3141 3140 3140 3140 3139 3139 3138 3138 3137 3136 3135 3135 3134 3133 3132 3131 3131 3130 3129 3128 3127 3127 3126 3125 3125 3124 3123 3122 3121
3143 3144 3144 3144 3145 3145 3145 3145 3145 3146 3146 3146 3147 3147 3147 3147 3147 3147 3147 3147 3147 3147 3148 3148 3148 3148 3148 3148 3149 3149 3149 3149 3149 3149 3149 3149 3149 3149 3148 3148 3148 3148 3148 3148 3147 3147 3147 3147 3147 3147 3146 3146 3146 3146 3146 3146 3146 3145 3145 3145 3145 3145 3145 3145 3144 3144 3144 3143 3143 3143 3142 3142 3141 3141 3140 3140 3140 3139 3139 3138 3138 3137 3137 3136 3135 3134 3134 3133 3132 3131 3130 3130 3129 3128 3127 3126 3125 3125 3124 3123 3122 3121 3120
3143 3143 3143 3144 3144 3144 3145 3145 3145 3145 3145 3146 3146 3146 3146 3146 3146 3146 3147 3147 3147 3147 3147 3147 3147 3147 3148 3148 3148 3148 3148 3148 3148 3148 3148 3148 3148 3148 3148 3148 3147 3147 3147 3147 3147 3147 3147 3146 3146 3146 3146 3146 3146 3146 3146 3145 3145 3145 3145 3145 3145 3145 3145 3144 3144 3144 3143 3143 3143 3142 3142 3141 3141 3140 3140 3140 3139 3139 3138 3138 3137 3137 3136 3135 3135 3134 3133 3132 3131 3131 3130 3129 3128 3127 3126 3126 3125 3124 3123 3123 3122 3121 3120
3142 3142 3143 3143 3143 3144 3144 3144 3144 3145 3145 3145 3145 3145 3145 3146 3146 3146 3146 3146 3146 3146 3146 3146 3147 3147 3147 3147 3147 3148 3148 3148 3148 3148 3148 3148 3148 3148 3147 3147 3147 3147 3147 3147 3147 3146 3146 3146 3146 3146 3146 3146 3145 3145 3145 3145 3145 3145 3145 3145 3145 3144 3144 3144 3144 3143 3143 3143 3142 3142 3141 3141 3140 3140 3140 3139 3139 3138 3137 3137 3136 3136 3135 3135 3134 3133 3132 3132 3131 3130 3129 3129 3128 3127 3126 3125 3124 3124 3123 3122 3121 3120 3120
3141 3142 3142 3142 3143 3143 3143 3144 3144 3144 3144 3145 3145 3145 3145 3145 3145 3145 3145 3145 3145 3146 3146 3146 3146 3146 3146 3147 3147 3147 3147 3147 3147 3147 3147 3147 3147 3147 3147 3147 3146 3146 3146 3146 3146 3146 3146 3146 3145 3145 3145 3145 3145 3145 3145 3145 3145 3145 3145 3144 3144 3144 3144 3143 3143 3143 3142 3142 3142 3141 3141 3140 3140 3140 3139 3139 3138 3138 3137 3136 3136 3135 3135 3134 3133 3133 3132 3131 3130 3130 3129 3128 3127 3126 3125 3125 3124 3123 3122 3121 3120 3120 3119
3141 3141 3141 3142 3142 3142 3143 3143 3143 3144 3144 3144 3144 3144 3144 3145 3145 3145 3145 3145 3145 3145 3145 3145 3145 3146 3146 3146 3146 3146 3146 3146 3146 3146 3146 3146 3147 3147 3146 3146 3146 3146 3146 3146 3146 3145 3145 3145 3145 3145 3145 3145 3145 3145 3145 3145 3144 3144 3144 3144 3144 3143 3143 3143 3143 3142 3142 3142 3141 3141 3140 3140 3140 3139 3139 3138 3138 3137 3136 3136 3135 3135 3134 3133 3133 3132 3131 3130 3130 3129 3128 3127 3126 3125 3125 3124 3123 3122 3121 3121 3120 3119 3118
3140 3140 3141 3141 3141 3141 3142 3142 3143 3143 3143 3143 3143 3143 3144 3144 3144 3144 3144 3144 3144 3145 3145 3145 3145 3145 3145 3145 3146 3146 3146 3146 3146 3146 3146 3146 3146 3146 3146 3146 3146 3145 3145 3145 3145 3145 3145 3145 3145 3145 3145 3145 3144 3144 3144 3144 3144 3144 3144 3143 3143 3143 3143 3142 3142 3142 3141 3141 3140 3140 3140 3139 3139 3138 3138 3137 3137 3136 3136 3135 3135 3134 3133 3133 3132 3131 3130 3130 3129 3128 3127 3126 3125 3125 3124 3123 3122 3122 3121 3120 3119 3118 3117
3140 3140 3140 3140 3140 3141 3141 3141 3142 3142 3142 3142 3143 3143 3143 3143 3143 3143 3144 3144 3144 3144 3144 3144 3144 3145 3145 3145 3145 3145 3145 3145 3145 3145 3145 3145 3145 3145 3145 3145 3145 3145 3145 3145 3145 3145 3145 3145 3144 3144 3144 3144 3144 3144 3144 3144 3143 3143 3143 3143 3143 3142 3142 3142 3141 3141 3141 3140 3140 3140 3139 3139 3138 3138 3137 3137 3136 3135 3135 3134 3134 3133 3132 3132 3131 3130 3130 3129 3128 3127 3126 3125 3125 3124 3123 3122 3122 3121 3120 3119 3118 3117 3116
3139 3139 3140 3140 3140 3140 3140 3141 3141 3141 3141 3142 3142 3142 3142 3142 3142 3143 3143 3143 3143 3143 3143 3144 3144 3144 3144 3145 3145 3145 3145 3145 3145 3145 3145 3145 3145 3145 3145 3145 3145 3145 3145 3145 3144 3144 3144 3144 3144 3144 3144 3144 3143 3143 3143 3143 3143 3143 3142 3142 3142 3142 3141 3141 3141 3140 3140 3140 3139 3139 3138 3138 3137 3137 3136 3136 3135 3135 3134 3133 3133 3132 3131 3131 3130 3130 3129 3128 3128 3127 3126 3125 3124 3123 3122 3121 3120 3120 3119 3118 3117 3116 3115
3138 3138 3139 3139 3139 3140 3140 3140 3141 3141 3141 3141 3141 3142 3142 3142 3142 3142 3142 3142 3143 3143 3143 3143 3143 3144 3144 3144 3144 3144 3144 3144 3144 3144 3144 3144 3144 3144 3144 3144 3144 3144 3144 3144 3144 3144 3144 3143 3143 3143 3143 3143 3143 3143 3142 3142 3142 3142 3142 3141 3141 3141 3141 3140 3140 3140 3139 3139 3138 3138 3137 3137 3136 3136 3135 3135 3134 3134 3133 3132 3132 3131 3130 3130 3129 3128 3128 3127 3126 3126 3125 3124 3123 3122 3121 3120 3120 3119 3118 3117 3116 3115 3114
3137 3137 3138 3138 3139 3139 3139 3140 3140 3140 3140 3140 3140 3141 3141 3141 3141 3141 3141 3142 3142 3142 3142 3142 3143 3143 3143 3143 3143 3143 3143 3143 3144 3144 3144 3144 3144 3144 3144 3144 3144 3143 3143 3143 3143 3143 3143 3143 3143 3143 3142 3142 3142 3142 3142 3142 3141 3141 3141 3141 3140 3140 3140 3140 3139 3139 3138 3138 3138 3137 3136 3136 3135 3135 3135 3134 3133 3133 3132 3131 3130 3130 3129 3129 3128 3127 3126 3126 3125 3125 3124 3123 3122 3121 3120 3120 3119 3117 3116 3115 3115 3114 3113
3136 3136 3137 3137 3137 3138 3138 3139 3140 3140 3140 3140 3140 3140 3140 3140 3140 3141 3141 3141 3141 3142 3142 3142 3142 3142 3142 3142 3142 3142 3143 3143 3143 3143 3143 3143 3143 3143 3143 3143 3143 3143 3142 3142 3142 3142 3142 3142 3142 3142 3142 3142 3141 3141 3141 3141 3141 3140 3140 3140 3140 3140 3139 3139 3139 3138 3138 3137 3137 3136 3135 3135 3135 3134 3133 3133 3132 3131 3131 3130 3130 3129 3128 3127 3126 3126 3125 3124 3124 3123 3122 3122 3121 3120 3119 3118 3117 3116 3115 3114 3113 3112 3111
3135 3136 3136 3136 3136 3137 3137 3138 3139 3139 3139 3139 3139 3140 3140 3140 3140 3140 3140 3141 3141 3141 3141 3141 3141 3141 3141 3141 3142 3142 3142 3142 3142 3142 3142 3142 3142 3142 3142 3142 3142 3142 3142 3142 3142 3142 3141 3141 3141 3141 3141 3141 3141 3140 3140 3140 3140 3140 3140 3139 3139 3139 3138 3138 3138 3137 3137 3136 3136 3135 3135 3134 3134 3133 3132 3132 3131 3130 3130 3129 3128 3128 3127 3126 3125 3125 3124 3123 3122 3121 3120 3120 3119 3118 3118 3117 3116 3115 3114 3113 3112 3111 3110
3135 3135 3135 3135 3136 3136 3137 3138 3138 3139 3139 3139 3139 3139 3139 3139 3140 3140 3140 3140 3140 3140 3140 3140 3140 3140 3141 3141 3141 3141 3141 3141 3141 3141 3141 3141 3141 3141 3142 3141 3141 3141 3141 3141 3141 3141 3141 3141 3140 3140 3140 3140 3140 3140 3140 3140 3139 3139 3139 3138 3138 3138 3137 3137 3137 3136 3136 3135 3135 3134 3134 3133 3132 3132 3131 3130 3130 3129 3129 3128 3127 3126 3125 3125 3124 3123 3122 3122 3121 3120 3119 3118 3117 3116 3116 3115 3114 3113 3112 3111 3110 3110 3108
3134 3134 3135 3135 3135 3136 3136 3137 3138 3138 3138 3138 3138 3139 3139 3139 3139 3139 3139 3140 3140 3140 3140 3140 3140 3140 3140 3140 3140 3140 3140 3140 3140 3140 3141 3141 3141 3141 3141 3141 3141 3140 3140 3140 3140 3140 3140 3140 3140 3140 3140 3139 3139 3139 3139 3139 3138 3138 3138 3138 3137 3137 3137 3136 3136 3135 3135 3134 3134 3133 3133 3132 3131 3131 3130 3130 3129 3128 3127 3127 3126 3125 3124 3124 3123 3122 3121 3120 3119 3118 3117 3116 3115 3115 3114 3113 3112 3111 3110 3110 3109 3108 3107
3133 3134 3134 3135 3135 3135 3136 3136 3137 3137 3137 3138 3138 3138 3138 3138 3138 3138 3139 3139 3139 3139 3139 3140 3139 3139 3139 3139 3140 3140 3140 3140 3140 3140 3140 3140 3140 3140 3140 3140 3140 3140 3140 3140 3139 3139 3139 3139 3139 3139 3139 3139 3138 3138 3138 3138 3138 3137 3137 3137 3136 3136 3136 3135 3135 3134 3134 3133 3133 3132 3131 3131 3130 3130 3129 3128 3128 3127 3126 3125 3125 3124 3123 3122 3121 3120 3120 3119 3118 3117 3116 3115 3114 3113 3112 3111 3110 3110 3109 3108 3107 3106 3105
3133 3133 3134 3134 3135 3135 3135 3136 3136 3136 3137 3137 3137 3137 3137 3137 3138 3138 3138 3138 3138 3138 3139 3139 3139 3139 3139 3139 3139 3139 3139 3139 3139 3139 3139 3139 3139 3139 3139 3139 3139 3139 3139 3139 3139 3138 3138 3138 3138 3138 3138 3138 3138 3137 3137 3137 3137 3136 3136 3136 3135 3135 3135 3134 3134 3133 3133 3132 3132 3131 3130 3130 3129 3128 3128 3127 3126 3125 3125 3124 3123 3122 3122 3121 3120 3119 3118 3117 3116 3115 3115 3114 3112 3111 3110 3110 3109 3108 3107 3106 3105 3104 3103
3132 3133 3133 3134 3134 3135 3135 3135 3135 3136 3136 3136 3136 3136 3136 3137 3137 3137 3137 3137 3137 3137 3138 3138 3138 3138 3138 3138 3138 3138 3138 3138 3138 3138 3138 3138 3138 3138 3138 3138 3138 3138 3138 3138 3138 3138 3137 3137 3137 3137 3137 3137 3137 3136 3136 3136 3136 3135 3135 3135 3135 3134 3134 3133 3133 3132 3132 3131 3130 3130 3129 3129 3128 3127 3126 3126 3125 3125 3124 3123 3122 3121 3120 3119 3119 3118 3117 3116 3115 3114 3113 3112 3111 3110 3109 3108 3107 3106 3105 3105 3104 3103 3102
3131 3132 3132 3133 3133 3134 3134 3134 3135 3135 3135 3135 3135 3135 3136 3136 3136 3136 3136 3136 3136 3136 3137 3137 3137 3137 3137 3137 3137 3137 3137 3137 3137 3137 3137 3137 3137 3137 3137 3137 3137 3137 3137 3137 3137 3137 3136 3136 3136 3136 3136 3136 3136 3136 3135 3135 3135 3135 3134 3134 3133 3133 3133 3132 3132 3131 3131 3130 3130 3129 3128 3127 3127 3126 3125 3125 3124 3123 3122 3121 3121 3120 3119 3118 3117 3116 3115 3114 3113 3112 3111 3110 3110 3109 3108 3106 3105 3105 3104 3103 3102 3101 3100
3130 3131 3131 3132 3132 3133 3133 3134 3134 3134 3134 3135 3135 3135 3135 3135 3135 3135 3135 3135 3136 3136 3136 3136 3136 3136 3136 3136 3136 3136 3136 3136 3136 3136 3136 3136 3136 3136 3136 3136 3136 3136 3136 3136 3136 3136 3136 3135 3135 3135 3135 3135 3135 3135 3134 3134 3134 3134 3133 3133 3132 3132 3132 3131 3131 3130 3130 3129 3128 3127 3127 3126 3125 3125 3124 3123 3123 3122 3121 3120 3119 3119 3118 3117 3116 3115 3114 3113 3112 3111 3110 3109 3108 3107 3106 3105 3104 3103 3102 3101 3100 3099 3098
3130 3130 3131 3131 3132 3132 3132 3133 3133 3133 3134 3134 3134 3134 3134 3134 3135 3135 3135 3135 3135 3135 3135 3135 3135 3135 3135 3135 3135 3135 3135 3135 3135 3135 3135 3135 3135 3135 3135 3135 3135 3135 3135 3135 3135 3135 3135 3135 3135 3135 3134 3134 3134 3134 3133 3133 3133 3132 3132 3132 3131 3131 3130 3130 3130 3129 3128 3128 3127 3126 3125 3125 3124 3124 3123 3122 3121 3120 3120 3119 3118 3117 3116 3115 3114 3113 3112 3111 3110 3109 3108 3107 3106 3105 3104 3103 3102 3101 3100 3099 3098 3097 3096
3129 3130 3130 3130 3131 3131 3132 3132 3132 3133 3133 3133 3133 3133 3134 3134 3134 3134 3134 3134 3134 3134 3134 3135 3135 3135 3135 3135 3135 3134 3134 3134 3134 3134 3134 3134 3134 3134 3134 3134 3134 3134 3134 3134 3134 3134 3134 3134 3134 3134 3133 3133 3133 3133 3132 3132 3132 3131 3131 3130 3130 3130 3129 3129 3128 3127 3127 3126 3125 3125 3124 3124 3123 3122 3121 3121 3120 3119 3118 3117 3117 3116 3115 3114 3113 3112 3111 3110 3109 3108 3107 3106 3105 3104 3103 3102 3100 3100 3099 3097 3096 3095 3094
3129 3129 3130 3130 3130 3131 3131 3131 3132 3132 3132 3132 3132 3133 3133 3133 3133 3133 3133 3133 3133 3134 3134 3134 3134 3134 3134 3134 3134 3134 3133 3133 3133 3133 3133 3133 3133 3133 3133 3133 3133 3133 3133 3133 3133 3133 3133 3133 3133 3133 3132 3132 3132 3132 3131 3131 3131 3130 3130 3130 3129 3129 3128 3127 3127 3126 3125 3125 3124 3124 3123 3122 3121 3121 3120 3119 3119 3118 3117 3116 3115 3114 3113 3112 3111 3110 3109 3108 3107 3106 3105 3104 3103 3102 3101 3100 3099 3098 3097 3095 3095 3093 3092
3128 3128 3129 3129 3130 3130 3130 3131 3131 3131 3131 3132 3132 3132 3132 3132 3132 3132 3132 3132 3133 3133 3133 3133 3133 3133 3133 3133 3133 3133 3133 3133 3133 3132 3132 3132 3132 3132 3132 3132 3132 3132 3132 3132 3132 3132 3132 3131 3131 3131 3131 3131 3131 3131 3130 3130 3130 3129 3129 3128 3128 3127 3127 3126 3125 3125 3124 3124 3123 3122 3121 3121 3120 3119 3119 3118 3117 3116 3115 3115 3114 3113 3112 3111 3110 3109 3108 3107 3106 3105 3104 3103 3102 3101 3100 3099 3098 3096 3095 3094 3093 3091 3090
3127 3128 3128 3129 3129 3130 3130 3130 3130 3131 3131 3131 3131 3131 3131 3131 3131 3132 3132 3132 3132 3132 3132 3132 3132 3132 3132 3132 3132 3132 3132 3132 3132 3131 3131 3131 3131 3131 3131 3131 3131 3131 3131 3131 3130 3130 3130 3130 3130 3130 3130 3130 3130 3130 3129 3129 3129 3128 3128 3127 3127 3126 3126 3125 3125 3124 3123 3122 3122 3121 3120 3120 3119 3118 3117 3116 3115 3115 3114 3113 3112 3111 3110 3110 3108 3107 3106 3105 3105 3104 3103 3102 3100 3100 3098 3097 3096 3095 3094 3092 3091 3090 3088
3126 3127 3128 3128 3129 3129 3129 3130 3130 3130 3130 3130 3130 3130 3130 3130 3131 3131 3131 3131 3131 3131 3131 3131 3131 3131 3131 3131 3131 3131 3131 3131 3131 3130 3130 3130 3130 3130 3130 3130 3130 3130 3130 3130 3130 3129 3129 3129 3129 3129 3129 3129 3129 3128 3128 3128 3127 3127 3126 3126 3125 3125 3125 3124 3123 3123 3122 3121 3120 3120 3119 3118 3117 3116 3115 3115 3114 3113 3112 3111 3110 3110 3109 3108 3107 3106 3105 3104 3103 3102 3101 3100 3099 3098 3096 3095 3094 3093 3091 3090 3089 3088 3086
3126 3126 3127 3127 3128 3128 3129 3129 3129 3129 3129 3130 3130 3130 3130 3130 3130 3130 3130 3130 3130 3130 3130 3130 3130 3130 3130 3130 3130 3130 3130 3130 3130 3130 3130 3129 3129 3129 3129 3129 3128 3128 3128 3128 3128 3128 3128 3128 3128 3128 3128 3127 3127 3127 3127 3126 3126 3125 3125 3125 3124 3124 3123 3123 3122 3121 3120 3120 3119 3118 3117 3117 3116 3115 3114 3113 3112 3111 3110 3110 3109 3108 3107 3106 3105 3105 3103 3102 3101 3100 3099 3098 3097 3095 3094 3093 3091 3090 3088 3088 3086 3085 3084
3125 3126 3126 3127 3127 3127 3128 3128 3128 3128 3129 3129 3129 3129 3129 3129 3129 3129 3129 3129 3129 3129 3129 3129 3129 3129 3129 3129 3129 3129 3129 3129 3129 3129 3128 3128 3128 3128 3128 3127 3127 3127 3127 3127 3127 3127 3127 3127 3127 3127 3126 3126 3126 3125 3125 3125 3125 3124 3124 3123 3123 3122 3122 3121 3120 3120 3119 3118 3118 3117 3116 3115 3114 3113 3112 3111 3110 3110 3109 3108 3107 3106 3105 3105 3104 3103 3102 3101 3100 3099 3097 3096 3095 3093 3092 3090 3088 3087 3085 3085 3084 3083 3082
3125 3125 3125 3126 3126 3127 3127 3127 3127 3128 3128 3128 3128 3128 3128 3128 3128 3128 3128 3128 3128 3128 3128 3128 3128 3128 3128 3128 3128 3128 3128 3128 3128 3128 3127 3127 3127 3127 3126 3126 3126 3126 3126 3126 3126 3126 3126 3125 3125 3125 3125 3125 3125 3124 3124 3123 3123 3123 3122 3122 3121 3121 3120 3119 3119 3118 3117 3117 3116 3115 3115 3114 3113 3112 3111 3110 3109 3108 3107 3106 3105 3105 3104 3103 3102 3101 3100 3099 3098 3097 3095 3094 3093 3091 3089 3087 3086 3084 3083 3082 3081 3080 3080
3124 3125 3125 3125 3125 3126 3126 3126 3127 3127 3127 3127 3127 3127 3127 3127 3127 3127 3127 3127 3127 3127 3127 3127 3127 3127 3127 3127 3127 3127 3127 3127 3127 3127 3126 3126 3126 3126 3125 3125 3125 3125 3125 3125 3124 3124 3124 3124 3124 3124 3124 3123 3123 3123 3122 3122 3122 3121 3121 3120 3120 3119 3118 3118 3117 3116 3116 3115 3115 3114 3113 3112 3111 3110 3109 3109 3108 3107 3106 3105 3104 3103 3102 3101 3100 3099 3098 3097 3096 3095 3093 3092 3090 3089 3087 3085 3083 3082 3081 3080 3079 3078 3077
3124 3124 3124 3124 3125 3125 3125 3125 3126 3126 3126 3126 3126 3126 3126 3126 3127 3126 3126 3126 3126 3126 3126 3126 3126 3126 3126 3126 3126 3126 3126 3126 3126 3126 3125 3125 3125 3125 3125 3124 3124 3124 3124 3124 3123 3123 3123 3123 3123 3122 3122 3122 3122 3121 3121 3121 3120 3120 3120 3119 3118 3118 3117 3116 3115 3115 3114 3114 3113 3112 3111 3110 3109 3108 3108 3107 3106 3105 3104 3103 3102 3101 3100 3099 3098 3097 3096 3095 3094 3093 3091 3090 3088 3087 3085 3083 3081 3080 3079 3078 3077 3076 3075
3123 3123 3123 3123 3123 3124 3124 3125 3125 3125 3125 3125 3125 3125 3125 3125 3125 3125 3125 3125 3125 3125 3125 3125 3125 3125 3125 3125 3125 3125 3125 3125 3125 3125 3125 3124 3124 3124 3123 3123 3123 3123 3123 3122 3122 3122 3122 3122 3121 3121 3120 3120 3120 3120 3120 3119 3119 3119 3118 3118 3117 3116 3116 3115 3114 3113 3113 3112 3111 3110 3109 3108 3107 3106 3106 3105 3104 3103 3103 3102 3101 3100 3099 3098 3096 3095 3095 3094 3092 3091 3090 3088 3086 3085 3083 3081 3080 3079 3077 3076 3075 3074 3073
3122 3122 3122 3122 3122 3123 3123 3123 3124 3124 3124 3124 3125 3125 3125 3125 3125 3125 3125 3125 3124 3124 3124 3124 3124 3124 3124 3124 3124 3124 3124 3124 3124 3124 3123 3123 3123 3123 3122 3122 3122 3122 3121 3121 3121 3120 3120 3120 3120 3120 3119 3119 3119 3118 3118 3118 3117 3117 3117 3116 3115 3115 3114 3114 3113 3112 3111 3110 3110 3109 3108 3107 3105 3105 3104 3103 3102 3101 3101 3100 3099 3098 3097 3096 3095 3094 3093 3092 3090 3089 3088 3086 3084 3083 3081 3080 3078 3077 3076 3075 3073 3072 3071
3121 3121 3121 3121 3121 3122 3122 3122 3123 3123 3123 3123 3124 3124 3124 3124 3124 3124 3124 3124 3124 3123 3123 3123 3123 3123 3123 3123 3123 3123 3123 3123 3123 3123 3122 3122 3122 3122 3121 3121 3121 3120 3120 3120 3120 3119 3119 3119 3118 3118 3118 3118 3117 3117 3116 3116 3116 3115 3115 3115 3114 3114 3113 3112 3111 3110 3110 3109 3108 3107 3106 3105 3104 3103 3102 3101 3100 3100 3099 3098 3097 3096 3095 3094 3093 3091 3090 3090 3088 3087 3086 3084 3082 3081 3080 3078 3076 3075 3074 3072 3071 3070 3069
3120 3121 3121 3121 3121 3121 3121 3121 3122 3122 3122 3122 3123 3123 3123 3123 3123 3123 3123 3123 3123 3122 3122 3122 3122 3122 3122 3122 3122 3122 3122 3122 3122 3121 3121 3121 3121 3121 3120 3120 3120 3120 3119 3119 3118 3118 3118 3118 3117 3116 3116 3116 3116 3115 3115 3115 3114 3114 3113 3113 3112 3112 3111 3110 3110 3109 3108 3107 3107 3105 3105 3104 3103 3102 3101 3100 3099 3098 3097 3096 3095 3094 3093 3092 3090 3089 3088 3087 3086 3085 3084 3082 3080 3079 3077 3076 3075 3073 3071 3070 3069 3067 3066
3120 3120 3120 3120 3120 3120 3120 3120 3121 3121 3121 3121 3121 3121 3122 3122 3122 3122 3122 3122 3121 3121 3121 3121 3121 3121 3121 3121 3121 3121 3121 3121 3120 3120 3120 3120 3120 3120 3119 3119 3119 3118 3118 3118 3117 3117 3116 3116 3116 3115 3115 3114 3115 3115 3114 3113 3112 3112 3112 3111 3110 3110 3109 3109 3108 3107 3107 3106 3105 3104 3103 3102 3101 3100 3099 3099 3098 3097 3096 3095 3094 3092 3091 3090 3089 3087 3086 3085 3084 3083 3082 3080 3078 3077 3075 3074 3072 3070 3069 3067 3066 3065 3064
3118 3119 3119 3119 3119 3120 3120 3120 3120 3120 3120 3120 3120 3120 3121 3121 3121 3121 3121 3120 3120 3120 3120 3120 3120 3120 3120 3120 3120 3120 3120 3120 3119 3119 3119 3119 3119 3118 3118 3118 3117 3117 3117 3116 3116 3115 3115 3115 3114 3114 3113 3113 3112 3112 3112 3112 3111 3110 3110 3110 3109 3108 3108 3107 3106 3105 3105 3104 3103 3102 3101 3100 3100 3099 3098 3097 3096 3095 3094 3093 3092 3090 3089 3088 3086 3085 3084 3083 3081 3080 3080 3078 3076 3074 3072 3071 3069 3068 3066 3065 3063 3062 3061
3117 3117 3118 3118 3118 3118 3119 3119 3119 3119 3119 3119 3119 3120 3120 3120 3120 3120 3119 3119 3119 3119 3119 3119 3119 3118 3118 3118 3118 3118 3118 3118 3118 3118 3118 3118 3117 3117 3117 3116 3116 3116 3115 3115 3115 3114 3114 3114 3113 3112 3112 3111 3110 3110 3110 3110 3110 3109 3109 3108 3107 3106 3106 3105 3105 3104 3103 3102 3101 3101 3100 3099 3098 3097 3096 3095 3094 3093 3092 3091 3090 3089 3087 3086 3084 3083 3081 3080 3079 3078 3077 3075 3074 3071 3070 3068 3066 3065 3063 3062 3060 3059 3058
3116 3116 3116 3117 3117 3117 3117 3117 3118 3118 3118 3118 3118 3118 3118 3119 3118 3118 3118 3118 3118 3118 3118 3118 3117 3117 3117 3117 3117 3117 3117 3117 3117 3116 3116 3116 3116 3116 3115 3115 3115 3115 3114 3114 3113 3113 3113 3112 3112 3111 3110 3110 3109 3108 3108 3109 3109 3108 3107 3107 3106 3105 3104 3104 3103 3103 3102 3101 3100 3099 3098 3097 3096 3095 3095 3094 3093 3091 3090 3089 3088 3086 3085 3084 3082 3081 3080 3078 3076 3075 3074 3073 3071 3069 3067 3065 3064 3062 3061 3059 3058 3056 3055